Regional Weather Roundup
Issued by NWS Grand Forks, ND

Home | Current Version | Previous Version | Graphics & Text | Print | Product List | Glossary On
Versions: 1 2 3 4 5 6 7 8 9 10 11 12 13 14 15 16 17 18 19 20 21 22 23 24 25 26 27 28 29 30 31 32 33 34 35 36 37 38 39 40 41 42 43 44 45 46 47 48 49 50
000
ASUS43 KFGF 271210
RWRFGF
PRAIRIE TO PINES  WEATHER ROUNDUP
NATIONAL WEATHER SERVICE EASTERN NORTH DAKOTA/GRAND FORKS ND
700 AM CDT MON APR 27 2015

 **SATELLITE DATA USED TO AUGMENT SKY COVER AT AUTOMATED STATIONS**
 *****  WEATHER ACROSS EASTERN NORTH DAKOTA  *****

CITY           SKY/WX    TMP DP  RH WIND       PRES   REMARKS
GRAND FORKS    MOCLDY    34  28  79 S3        30.18S
6HR MIN TEMP:  32; 6HR MAX TEMP:  49;

GRAND FRKS AFB MOCLDY    35  32  89 SW6       30.18S
GRAND FRKS NWS   N/A     37 N/A N/A S3          N/A
DEVILS LAKE    CLOUDY    45  41  87 N12       30.20R
6HR MIN TEMP:  37; 6HR MAX TEMP:  45;

FARGO          PTCLDY    37  25  61 SW5       30.20R
WAHPETON ARPT  SUNNY     32  25  74 SE3       30.22R
$$

 ***** WEATHER ACROSS CENTRAL AND WESTERN NORTH DAKOTA  *****

CITY           SKY/WX    TMP DP  RH WIND       PRES   REMARKS
BISMARCK       CLOUDY    45  44  97 W6        30.22R FOG
6HR MIN TEMP:  40; 6HR MAX TEMP:  46;

MINOT          LGT RAIN  40  38  93 NW8       30.24R
6HR MIN TEMP:  40; 6HR MAX TEMP:  47; 6HR PCP:  0.10;

JAMESTOWN      PTCLDY    36  30  79 SW3       30.19R
6HR MIN TEMP:  34; 6HR MAX TEMP:  42;

MINOT AFB      DRIZZLE   40  40 100 NW9       30.23S
GARRISON         N/A     41  39  93 N10       30.23R
WILLISTON      LGT RAIN  41  38  89 W6        30.28R
6HR MIN TEMP:  41; 6HR MAX TEMP:  44; 6HR PCP:  0.11;

DICKINSON      LGT RAIN  41  40  96 N9        30.22R FOG
6HR MIN TEMP:  41; 6HR MAX TEMP:  43; 6HR PCP:  0.16;

HETTINGER      CLOUDY    41  39  93 NW15      30.23R
6HR MIN TEMP:  41; 6HR MAX TEMP:  43; 6HR PCP: TRACE;

$$

 *****  OTHER AIRPORT OBSERVATIONS IN OUR AREA  *****

CITY           SKY/WX    TMP DP  RH WIND       PRES   REMARKS
WALHALLA       PTSUNNY   46  46 100 NW6       30.21R
GRAFTON AIRPOR CLOUDY    39  39 100 W5        30.20R FOG
VALLEY CITY AR FAIR      37  28  70 CALM      30.20R
CANDO          CLOUDY    41  37  87 N9        30.22S
CAVALIER APRT  CLOUDY    48  45  87 NW12      30.19R HAZE
GWINNER        SUNNY     37  27  65 W8        30.22R
ROLLA          MIX PCPN  39  39 100 N9        30.22S
 ***** THE ABOVE OBSERVATIONS ARE NON NWS ARE NOT QUALITY
       CONTROLLED AND MAY MIS-REPORT RAIN FOR SNOW...
$$

  *****  WEATHER ACROSS NORTHERN MINNESOTA  *****

CITY           SKY/WX    TMP DP  RH WIND       PRES   REMARKS
FLAG ISLAND    PTCLDY    43  28  56 SE5       30.20S
WARROAD        PTCLDY    36  28  75 SE3       30.20F
ROSEAU         PTCLDY    34  28  80 CALM      30.19S
HALLOCK        MOCLDY    39  21  48 S5        30.19R
THF RVR FALLS  MOCLDY    39  21  48 S3        30.20S
6HR MIN TEMP:  37; 6HR MAX TEMP:  48;

BAUDETTE       PTCLDY    34  28  79 CALM      30.21S
6HR MIN TEMP:  29; 6HR MAX TEMP:  37;

WASKISH        CLEAR     30  27  86 CALM      30.21S
CROOKSTON      PTCLDY    37  27  65 S7        30.20S
$$
  *****  WEATHER ACROSS CENTRAL AND WEST MINNESOTA  *****

CITY           SKY/WX    TMP DP  RH WIND       PRES   REMARKS
FOSSTON        PTCLDY    36  27  69 S3        30.20S
BEMIDJI        CLEAR     29  22  76 CALM      30.21R
PARK RAPIDS    CLEAR     30  23  75 CALM      30.20S
6HR MIN TEMP:  28; 6HR MAX TEMP:  38;

ELBOW LAKE     FAIR      40  28  62 CALM      30.21R
6HR MIN TEMP:  40; 6HR MAX TEMP:  46;

WADENA         CLEAR     28  23  80 CALM      30.21R
DETROIT LAKES  PTCLDY    36  30  80 CALM      30.22R
MOORHEAD       PTCLDY    36  21  55 CALM      30.22R
FERGUS FALLS   CLEAR     37  27  65 E5        30.24R
MORRIS MN      CLEAR     34  27  75 CALM      30.21R
STAPLES        CLEAR     28  25  86 CALM      30.21S
$$
  *****  WEATHER ELSEWHERE ACROSS MINNESOTA  *****

CITY           SKY/WX    TMP DP  RH WIND       PRES   REMARKS
DULUTH         CLEAR     36  26  67 NW6       30.21S
6HR MIN TEMP:  27; 6HR MAX TEMP:  36;

INTRNTL FALLS  CLEAR     28  24  85 CALM      30.22S
6HR MIN TEMP:  23; 6HR MAX TEMP:  29;

ELY            CLEAR     27  25  93 CALM      30.23R
CLOQUET        CLEAR     28  23  80 NW5       30.21F WCI  23
WHEATON        CLEAR     32  23  69 CALM      30.23S
BRAINERD       CLEAR     28  23  81 CALM      30.21S
6HR MIN TEMP:  26; 6HR MAX TEMP:  36;

HIBBING        CLEAR     26  21  81 CALM      30.21F
6HR MIN TEMP:  22; 6HR MAX TEMP:  28;

ALEXANDRIA     CLEAR     35  28  75 CALM      30.22R
6HR MIN TEMP:  33; 6HR MAX TEMP:  41;

SAINT CLOUD    CLEAR     32  25  75 CALM      30.22R
6HR MIN TEMP:  28; 6HR MAX TEMP:  38;

MINNEAPOLIS    PTCLDY    43  29  57 N3        30.20S
6HR MIN TEMP:  39; 6HR MAX TEMP:  50;

$$

  *****  WEATHER ACROSS SOUTH DAKOTA  *****

CITY           SKY/WX    TMP DP  RH WIND       PRES   REMARKS
SIOUX FALLS    PTCLDY    34  27  75 NE5       30.20R
6HR MIN TEMP:  32; 6HR MAX TEMP:  45;

BROOKINGS      CLEAR     30  25  80 CALM      30.22R
WATERTOWN      CLEAR     35  21  56 CALM      30.21R
6HR MIN TEMP:  28; 6HR MAX TEMP:  47;

HURON          CLEAR     31  25  78 CALM      30.20R
6HR MIN TEMP:  28; 6HR MAX TEMP:  46;

SISSETON         N/A     31  25  78 SW3       30.20R
ABERDEEN       PTCLDY    31  25  78 CALM      30.22R
6HR MIN TEMP:  30; 6HR MAX TEMP:  40;

MITCHELL       CLEAR     37  32  82 NW3       30.21R
PIERRE         CLEAR     34  30  85 CALM      30.19R
6HR MIN TEMP:  33; 6HR MAX TEMP:  48;

MOBRIDGE       PTCLDY    37  32  82 CALM      30.17R
RAPID CITY     CLOUDY    42  39  89 N20       30.20R
6HR MIN TEMP:  41; 6HR MAX TEMP:  47;

$$

  *****  SOME WEATHER IN NEARBY STATES *****

CITY           SKY/WX    TMP DP  RH WIND       PRES   REMARKS
GLASGOW MT     CLOUDY    39  35  86 W5        30.28R
6HR MIN TEMP:  39; 6HR MAX TEMP:  41; 6HR PCP:  0.01;

GREAT FALLS MT CLEAR     32  29  88 SW13      30.25R WCI  22
6HR MIN TEMP:  28; 6HR MAX TEMP:  33;

CHEYENNE WY    CLOUDY    34  32  92 NE3       30.17R
6HR MIN TEMP:  33; 6HR MAX TEMP:  34; 6HR PCP:  0.27;

SCOTTSBLUFF NE CLOUDY    44  50 100 N5        30.19R
6HR MIN TEMP:  44; 6HR MAX TEMP:  45;

OMAHA NE       MOCLDY    38  35  89 N7        30.18R
6HR MIN TEMP:  36; 6HR MAX TEMP:  43;

DES MOINES IA  PTCLDY    40  32  73 CALM      30.16R
6HR MIN TEMP:  38; 6HR MAX TEMP:  47;

DAVENPORT IA   CLEAR     37  29  72 NE3       30.15R
6HR MIN TEMP:  33; 6HR MAX TEMP:  40;

CHICAGO IL     SUNNY     41  30  65 N8        30.08R
6HR MIN TEMP:  38; 6HR MAX TEMP:  42;

EAU CLAIRE WI  CLEAR     35  28  75 CALM      30.19S
6HR MIN TEMP:  30; 6HR MAX TEMP:  42;

LA CROSSE WI   CLEAR     40  32  73 N6        30.17R
6HR MIN TEMP:  36; 6HR MAX TEMP:  47;

$$

  *****  SOME NATIONAL WEATHER *****

CITY           SKY/WX    TMP DP  RH WIND       PRES   REMARKS
LA GUARDIA NY  CLOUDY    49  34  56 NW7       29.68R
6HR MIN TEMP:  49; 6HR MAX TEMP:  51;

RALEIGH NC     MOSUNNY   46  45  96 CALM      29.80R
6HR MIN TEMP:  39; 6HR MAX TEMP:  46;

ATLANTA GA     PTSUNNY   52  47  83 NW9       29.88R
6HR MIN TEMP:  51; 6HR MAX TEMP:  56;

NEW ORLEANS LA CLOUDY    76  72  87 E8        29.71R FOG
6HR MIN TEMP:  74; 6HR MAX TEMP:  76;

OKLAHOMA CITY  LGT RAIN  55  51  86 NE16      29.82R
6HR MIN TEMP:  53; 6HR MAX TEMP:  55; 6HR PCP:  0.01;

ALBUQUERQUE NM MOCLDY    44  39  82 W7        29.94R
6HR MIN TEMP:  44; 6HR MAX TEMP:  47; 6HR PCP: TRACE;

SALT LAKE CITY MOCLDY    40  34  79 N6        30.18R
6HR MIN TEMP:  40; 6HR MAX TEMP:  49;

LOS ANGELES CA PTCLDY    57  52  83 E3        29.92S
6HR MIN TEMP:  56; 6HR MAX TEMP:  60;

BOISE ID       CLEAR     37  26  64 CALM      30.27R



USA.gov is the U.S. government's official web portal to all federal, state and local government web resources and services.